[[{"header":{"parameterUnit":"m.s-1","parameterCategory":1,"la1":30.2991,"la2":30.254,"lo1":-89.0895,"lo2":-89.0444,"dy":0.0017,"dx":0.0017,"nx":28,"ny":28,"refTime":"2023-11-15T09:00:00:Z","depth":0,"parameterNumber":2,"parameterNumberName":"U-component_of_WINDS"},"data":[0,0,0,0,0,0,0,0,0,0,0,0,0,0,0,0,0,0,0,0,0,0,0,0,0,0,0,0,0,0,0,0,0,0,0,0,0,0,0,0,0,0,0,0,0,0,0,0,0,0,0,0,0,0,0,0,0,0,-4.3255,-4.3255,0,-4.3278,-4.3278,-4.3278,-4.3157,-4.3153,-4.3149,-4.3146,-4.3171,-4.3175,-4.3179,0,0,0,0,0,0,0,0,0,0,0,0,0,-4.3106,-4.311,-4.3255,-4.3255,-4.3255,-4.3278,-4.3278,-4.3278,-4.3157,-4.3153,-4.3149,-4.3145,-4.317,-4.3175,-4.318,0,0,0,0,0,0,0,0,0,0,0,0,0,-4.3154,-4.3111,-4.3254,-4.3197,-4.3192,-4.3278,-4.3278,-4.3278,-4.3158,-4.3153,-4.3147,-4.3143,-4.3169,-4.3174,-4.318,-4.3322,0,0,-4.3198,-4.3201,0,0,0,0,0,0,0,0,-4.3152,-4.316,-4.3205,-4.3201,-4.3196,-4.3209,-4.3235,-4.3293,-4.3159,-4.3171,-4.3146,-4.314,-4.3188,-4.3192,-4.3208,-4.3323,-4.3324,-4.3199,-4.3202,-4.3205,-4.3207,0,0,0,0,0,0,0,-4.3148,-4.3158,-4.3264,-4.3206,-4.3201,-4.3171,-4.3172,-4.3245,-4.3209,-4.317,-4.3161,-4.3165,-4.3185,-4.3203,-4.3208,-4.3324,-4.3199,-4.3204,-4.3207,-4.321,-4.3557,-4.3562,0,0,0,0,0,0,-4.3153,-4.3156,-4.3263,-4.3264,-4.316,-4.3178,-4.3179,-4.321,-4.3208,-4.3202,-4.317,-4.316,-4.3195,-4.3201,-4.3208,-4.3374,-4.3205,-4.321,-4.3214,-4.3551,-4.3558,-4.3564,0,0,0,0,0,0,-4.315,-4.3163,-4.3262,-4.3208,-4.3218,-4.3186,-4.3222,-4.3213,-4.3231,-4.3208,-4.3201,-4.3195,-4.3191,-4.32,-4.3294,-4.3374,-4.3213,-4.3218,-4.3544,-4.3553,-4.3561,-4.3708,0,0,0,0,0,0,-4.3146,-4.3163,-4.3217,-4.321,-4.3222,-4.3348,-4.3227,-4.3218,-4.3242,-4.3228,-4.3229,-4.3225,-4.3188,-4.3286,-4.33,-4.3379,-4.3223,-4.3537,-4.3548,-4.3558,-4.3696,-4.3721,-4.3742,0,0,0,0,0,-4.3141,-4.3257,-4.322,-4.3233,-4.3288,-4.3353,-4.3359,-4.3314,-4.3248,-4.3302,-4.3287,-4.3225,-4.3362,-4.3297,-4.3312,-4.3393,-4.3532,-4.3545,-4.3558,-4.3686,-4.3716,-4.3741,0,0,0,0,0,0,-4.3275,-4.3255,-4.3214,-4.3331,-4.3344,-4.3332,-4.3399,-4.3347,-4.338,-4.3367,-4.331,-4.3311,-4.3416,-4.3413,-4.3341,-4.353,-4.3436,-4.3452,-4.3528,-4.3557,-4.3579,-4.3578,-4.3228,0,0,0,0,0,-4.3317,-4.3372,-4.3352,-4.3457,-4.3466,-4.3432,-4.3458,-4.3422,-4.3434,-4.3439,-4.3431,-4.3445,-4.3492,-4.3524,-4.3565,-4.3694,-4.3693,-4.3758,-4.3781,-4.3799,-4.3815,-4.3884,-4.3913,-4.3606,-4.3606,-4.3606,0,0,-4.3407,-4.3403,-4.3441,-4.3484,-4.349,-4.3548,-4.3437,-4.3503,-4.3546,-4.3449,-4.3538,-4.3533,-4.3545,-4.3658,-4.3707,-4.3659,-4.3899,-4.3816,-4.3831,-4.3836,-4.39,-4.3929,-4.3955,-4.3615,-4.3613,-4.3612,0,0,-4.36,-4.3602,-4.369,-4.3699,-4.3709,-4.3685,-4.3707,-4.3702,-4.3695,-4.3783,-4.3712,-4.3761,-4.3842,-4.3854,-4.3871,-4.4068,-4.4012,-4.4083,-4.4202,-4.427,-4.4295,-4.4316,-4.4387,-4.4413,-4.4098,-4.4098,-4.4098,0,-4.371,-4.3794,-4.3742,-4.3813,-4.3835,-4.3749,-4.3838,-4.3849,-4.3873,-4.389,-4.3835,-4.3935,-4.3937,-4.4052,-4.41,-4.4116,-4.4139,-4.4083,-4.4295,-4.4316,-4.4335,-4.4402,-4.4429,-4.4107,-4.4106,-4.4105,-4.4104,0,-4.393,-4.3989,-4.4059,-4.4085,-4.4113,-4.4193,-4.4154,-4.4189,-4.415,-4.4132,-4.4223,-4.4222,-4.4262,-4.4286,-4.4249,-4.4397,-4.4367,-4.4305,-4.4209,-4.4374,-4.4436,-4.4462,-4.4119,-4.4116,-4.4113,-4.4111,0,0,-4.4209,-4.4204,-4.4231,-4.4241,-4.4246,-4.4291,-4.4367,-4.4405,-4.4438,-4.4456,-4.4519,-4.4589,-4.4532,-4.4551,-4.4514,-4.4574,-4.4731,-4.4504,-4.4504,-4.4548,-4.4895,-4.4943,-4.4973,-4.4693,-4.4698,-4.4702,-4.4894,0,-4.4399,-4.4529,-4.4484,-4.4616,-4.4671,-4.459,-4.4656,-4.4666,-4.4651,-4.4696,-4.4678,-4.473,-4.4649,-4.466,-4.4715,-4.4701,-4.48,-4.4686,-4.4753,-4.4756,-4.4754,-4.5006,-4.5057,-4.5238,-4.4918,-4.4922,-4.4925,0,-4.4639,-4.4667,-4.4805,-4.4801,-4.4822,-4.4882,-4.4914,-4.4957,-4.4967,-4.4952,-4.4973,-4.4923,-4.4998,-4.4901,-4.5003,-4.4926,-4.495,-4.4947,-4.4953,-4.4959,-4.4852,-4.502,-4.5295,-4.5323,-4.4963,-4.496,-4.4957,0,-4.4831,-4.4903,-4.4995,-4.5006,-4.5003,-4.5047,-4.5048,-4.5053,-4.5079,-4.5107,-4.5123,-4.5159,-4.518,-4.5209,-4.5171,-4.5103,-4.5279,-4.5178,-4.527,-4.5271,-4.5312,-4.531,-4.5596,-4.5325,-4.5325,-4.5324,-4.5324,0,-4.5049,-4.5137,-4.5081,-4.5138,-4.5234,-4.5181,-4.5278,-4.5269,-4.5274,-4.5328,-4.526,-4.5312,-4.5257,-4.5304,-4.5275,-4.5365,-4.5374,-4.5364,-4.5356,-4.5372,-4.5373,-4.5388,-4.5375,-4.5331,-4.533,-4.5328,-4.5327,0,-4.528,-4.5246,-4.5341,-4.533,-4.5329,-4.5401,-4.5391,-4.5444,-4.5423,-4.5492,-4.5506,-4.5474,-4.5526,-4.549,-4.5542,-4.5521,-4.564,-4.5613,-4.5637,-4.563,-4.5724,-4.5717,-4.6031,-4.607,-4.5773,-4.5776,-4.5778,0,-4.5423,-4.5488,-4.5484,-4.5515,-4.552,-4.5571,-4.5597,-4.5547,-4.5577,-4.5594,-4.5644,-4.569,-4.5724,-4.5811,-4.5793,-4.5833,-4.5807,-4.5915,-4.5813,-4.5827,-4.5811,-4.5808,-4.5815,-4.5936,-4.594,-4.5942,-4.5945,0,-4.5679,-4.5659,-4.5699,-4.5734,-4.5767,-4.5792,-4.5811,-4.5841,-4.579,-4.5827,-4.5879,-4.5906,-4.5959,-4.6006,-4.6038,-4.6039,-4.5985,-4.5976,-4.6,-4.6018,-4.603,-4.6026,-4.5695,-4.597,-4.5968,-4.5966,-4.5964,-4.5963,-4.5871,-4.5926,-4.5932,-4.5979,-4.5988,-4.6008,-4.6056,-4.6042,-4.6084,-4.6123,-4.609,-4.6153,-4.6161,-4.6199,-4.6207,-4.6256,-4.6212,-4.6245,-4.6254,-4.6264,-4.6278,-4.6021,-4.6261,-4.626,-4.6259,-4.6259,-4.6258,0,-4.6126,-4.6125,-4.6169,-4.6198,-4.6235,-4.6179,-4.6197,-4.6232,-4.6288,-4.63,-4.6335,-4.6395,-4.644,-4.6425,-4.6465,-4.6507,-4.6483,-4.652,-4.6517,-4.6518,-4.6314,-4.629,-4.6538,-4.6538,-4.6538,-4.6538,-4.6538,-4.6538,-4.6263,-4.6353,-4.6334,-4.6428,-4.6426,-4.6487,-4.6502,-4.652,-4.6529,-4.6599,-4.6636,-4.6626,-4.6627,-4.6667,-4.6706,-4.67,-4.6719,-4.6765,-4.6751,-4.656,-4.6533,-4.6506,-4.6484,-4.6769,-4.6769,-4.6951,-4.6953,-4.6954]},{"header":{"parameterUnit":"m.s-1","parameterCategory":1,"la1":30.2991,"la2":30.254,"lo1":-89.0895,"lo2":-89.0444,"dy":0.0017,"dx":0.0017,"nx":28,"ny":28,"refTime":"2023-11-15T09:00:00:Z","depth":0,"parameterNumber":3,"parameterNumberName":"V-component_of_WINDS"},"data":[0,0,0,0,0,0,0,0,0,0,0,0,0,0,0,0,0,0,0,0,0,0,0,0,0,0,0,0,0,0,0,0,0,0,0,0,0,0,0,0,0,0,0,0,0,0,0,0,0,0,0,0,0,0,0,0,0,0,-3.5013,-3.5013,0,-3.5015,-3.5015,-3.5015,-3.4953,-3.4951,-3.4949,-3.4948,-3.4949,-3.495,-3.4952,0,0,0,0,0,0,0,0,0,0,0,0,0,-3.4954,-3.4956,-3.5013,-3.5013,-3.5013,-3.5015,-3.5015,-3.5015,-3.4953,-3.4951,-3.4949,-3.4947,-3.4948,-3.495,-3.4952,0,0,0,0,0,0,0,0,0,0,0,0,0,-3.497,-3.4956,-3.5013,-3.4982,-3.498,-3.5015,-3.5015,-3.5015,-3.4953,-3.4951,-3.4948,-3.4946,-3.4948,-3.495,-3.4952,-3.5017,0,0,-3.496,-3.4961,0,0,0,0,0,0,0,0,-3.497,-3.4973,-3.4987,-3.4985,-3.4982,-3.4981,-3.4995,-3.5016,-3.4954,-3.4963,-3.4948,-3.4945,-3.4962,-3.4963,-3.4968,-3.5017,-3.5017,-3.496,-3.4961,-3.4962,-3.4963,0,0,0,0,0,0,0,-3.4969,-3.4972,-3.5014,-3.4987,-3.4984,-3.4968,-3.4968,-3.4998,-3.4976,-3.4962,-3.4958,-3.4959,-3.496,-3.4966,-3.4968,-3.5017,-3.496,-3.4962,-3.4963,-3.4964,-3.5117,-3.512,0,0,0,0,0,0,-3.4972,-3.4972,-3.5014,-3.5014,-3.4969,-3.4971,-3.4971,-3.4984,-3.4976,-3.4972,-3.4961,-3.4956,-3.4963,-3.4965,-3.4968,-3.5042,-3.4962,-3.4964,-3.4966,-3.5115,-3.5118,-3.5121,0,0,0,0,0,0,-3.4971,-3.4976,-3.5014,-3.4992,-3.4995,-3.4975,-3.499,-3.4985,-3.4992,-3.4975,-3.4971,-3.4972,-3.4962,-3.4964,-3.5005,-3.5041,-3.4966,-3.4968,-3.5111,-3.5116,-3.5119,-3.5191,0,0,0,0,0,0,-3.4969,-3.4976,-3.5001,-3.4993,-3.4997,-3.5051,-3.4992,-3.4987,-3.4996,-3.4989,-3.4984,-3.4981,-3.496,-3.5002,-3.5007,-3.5043,-3.497,-3.5108,-3.5113,-3.5118,-3.5186,-3.5197,-3.5207,0,0,0,0,0,-3.4967,-3.5021,-3.5002,-3.5008,-3.5027,-3.5054,-3.5056,-3.5031,-3.4999,-3.5023,-3.5012,-3.4981,-3.5036,-3.5006,-3.5012,-3.5049,-3.5106,-3.5112,-3.5118,-3.5181,-3.5195,-3.5207,0,0,0,0,0,0,-3.5034,-3.502,-3.4999,-3.5051,-3.5054,-3.5043,-3.5073,-3.5047,-3.5059,-3.5052,-3.502,-3.502,-3.5065,-3.5061,-3.5028,-3.511,-3.5065,-3.5073,-3.5111,-3.5125,-3.5135,-3.5135,-3.4972,0,0,0,0,0,-3.5055,-3.5079,-3.5064,-3.5112,-3.5115,-3.5094,-3.5104,-3.5085,-3.5086,-3.5087,-3.5079,-3.5082,-3.5099,-3.5112,-3.5127,-3.5185,-3.5182,-3.5213,-3.5224,-3.5233,-3.5239,-3.5268,-3.5282,-3.514,-3.514,-3.514,0,0,-3.5099,-3.5094,-3.511,-3.5125,-3.5125,-3.5149,-3.5095,-3.5123,-3.5141,-3.5091,-3.5129,-3.5123,-3.5124,-3.5173,-3.5194,-3.5171,-3.5278,-3.524,-3.5248,-3.5249,-3.5276,-3.5289,-3.5301,-3.5144,-3.5143,-3.5143,0,0,-3.519,-3.5189,-3.5228,-3.5229,-3.5229,-3.5215,-3.5225,-3.5217,-3.5211,-3.5249,-3.5212,-3.5232,-3.5264,-3.5265,-3.527,-3.5361,-3.5332,-3.5367,-3.5424,-3.5452,-3.5463,-3.5473,-3.5505,-3.5517,-3.5374,-3.5374,-3.5374,0,-3.5244,-3.5279,-3.5252,-3.5282,-3.5289,-3.5246,-3.5285,-3.5287,-3.5293,-3.5298,-3.5272,-3.5311,-3.5308,-3.5356,-3.5378,-3.5384,-3.5393,-3.5368,-3.5464,-3.5474,-3.5482,-3.5512,-3.5524,-3.5378,-3.5378,-3.5377,-3.5377,0,-3.5345,-3.537,-3.5401,-3.5408,-3.5419,-3.5453,-3.543,-3.5445,-3.5424,-3.5412,-3.545,-3.5445,-3.5459,-3.5469,-3.5449,-3.5514,-3.55,-3.547,-3.5424,-3.55,-3.5528,-3.5539,-3.5384,-3.5383,-3.5382,-3.5381,0,0,-3.5479,-3.5469,-3.5481,-3.5483,-3.548,-3.5498,-3.553,-3.5543,-3.5556,-3.5561,-3.5587,-3.5614,-3.5586,-3.5592,-3.5572,-3.5597,-3.5668,-3.5563,-3.5563,-3.5583,-3.5739,-3.5761,-3.5775,-3.5649,-3.5651,-3.5653,-3.5739,0,-3.5567,-3.5622,-3.5597,-3.5654,-3.5676,-3.5635,-3.5663,-3.5664,-3.5653,-3.567,-3.5658,-3.5678,-3.564,-3.5643,-3.5666,-3.5655,-3.5699,-3.5648,-3.5672,-3.5674,-3.5673,-3.579,-3.5813,-3.5895,-3.5749,-3.5751,-3.5752,0,-3.5677,-3.5686,-3.5746,-3.5737,-3.5746,-3.5771,-3.5781,-3.5798,-3.5797,-3.5788,-3.5794,-3.5768,-3.5799,-3.5753,-3.5794,-3.576,-3.5768,-3.5764,-3.5767,-3.5768,-3.5717,-3.5793,-3.592,-3.5932,-3.5769,-3.5768,-3.5767,0,-3.5768,-3.5795,-3.5834,-3.5837,-3.5829,-3.5847,-3.5845,-3.5842,-3.5851,-3.5859,-3.5865,-3.5877,-3.5883,-3.5893,-3.587,-3.5839,-3.5914,-3.5867,-3.5907,-3.5908,-3.5924,-3.5923,-3.6054,-3.5931,-3.5931,-3.593,-3.593,0,-3.5868,-3.5906,-3.5874,-3.5898,-3.5939,-3.591,-3.5951,-3.5944,-3.5942,-3.5963,-3.5928,-3.5949,-3.5918,-3.5935,-3.5918,-3.5954,-3.5958,-3.5951,-3.5946,-3.5954,-3.5954,-3.5958,-3.5952,-3.5934,-3.5933,-3.5932,-3.5932,0,-3.5977,-3.5957,-3.5996,-3.5985,-3.5983,-3.6014,-3.6004,-3.6025,-3.6012,-3.6039,-3.6044,-3.6024,-3.6042,-3.6021,-3.6038,-3.6026,-3.6075,-3.6062,-3.6075,-3.6071,-3.6112,-3.6108,-3.6249,-3.6266,-3.6133,-3.6134,-3.6135,0,-3.6042,-3.607,-3.6061,-3.6073,-3.6072,-3.6092,-3.6101,-3.6073,-3.6084,-3.6085,-3.6106,-3.6122,-3.6133,-3.6165,-3.6152,-3.6164,-3.6151,-3.6199,-3.6152,-3.6159,-3.6151,-3.6149,-3.6152,-3.6209,-3.621,-3.6212,-3.6213,0,-3.616,-3.6148,-3.6162,-3.6173,-3.6185,-3.6192,-3.6197,-3.6208,-3.618,-3.6193,-3.6212,-3.622,-3.6238,-3.6253,-3.6262,-3.6259,-3.6231,-3.6227,-3.6237,-3.6245,-3.6252,-3.6248,-3.6101,-3.6224,-3.6223,-3.6222,-3.6222,-3.6221,-3.6248,-3.627,-3.6267,-3.6284,-3.6285,-3.629,-3.6309,-3.6298,-3.6313,-3.6324,-3.6307,-3.6331,-3.6329,-3.6338,-3.6338,-3.6355,-3.6334,-3.6349,-3.6352,-3.6356,-3.6362,-3.6249,-3.6357,-3.6356,-3.6356,-3.6356,-3.6355,0,-3.6363,-3.6359,-3.6375,-3.6382,-3.6395,-3.6367,-3.637,-3.6383,-3.6404,-3.6405,-3.6416,-3.6437,-3.6452,-3.644,-3.6452,-3.6469,-3.6456,-3.6473,-3.6471,-3.6471,-3.638,-3.637,-3.6483,-3.6483,-3.6483,-3.6483,-3.6483,-3.6482,-3.6424,-3.646,-3.6449,-3.6484,-3.648,-3.6502,-3.6506,-3.651,-3.6511,-3.6536,-3.6548,-3.654,-3.6535,-3.6547,-3.6559,-3.6555,-3.6561,-3.6582,-3.6574,-3.649,-3.6477,-3.6465,-3.6456,-3.6584,-3.6584,-3.6663,-3.6663,-3.6664]}]]